Location: Martley
(52.2333°N, 2.3667°W)
Time: 12:51:53
(UTC+00:00)

Cosmos 405 - Pass Details

Date: 11 December 2019
Orbit: 451 x 467 km, 81.3° (Epoch: 27 January)

Event Time Altitude Azimuth Distance (km) Brightness Sun altitude
Exits shadow 06:20:51 14° 346° (NNW) 1,424 5.1 -15.3°
Maximum altitude 06:23:56 85° 260° (W) 474 2.9 -14.8°
Drops below altitude 10° 06:27:27 10° 171° (S) 1,612 6.1 -14.3°
Sets 06:29:31 0° 170° (S) 2,479 7.1 -14.0°
